Location: Vancouver
(49.2500°N, 123.1330°W)
Time: 22:06:21
(UTC-07:00)

BREEZE-M DEB (TANK) - Visible Passes

Search period start: 29 June 2016 00:00
Search period end: 09 July 2016 00:00
Orbit: 272 x 13345 km, 49.6° (Epoch: 29 June)

Date Brightness Start Highest point End Pass type
(mag) Time Alt. Az. Time Alt. Az. Time Alt. Az.
29 Jun 3.1 02:58:16 10° WSW 03:09:15 87° SSE 03:12:34 10° E visible
29 Jun 5.4 23:30:20 10° SSW 23:56:17 42° SSE 00:03:06 10° E visible
30 Jun 2.4 04:12:22 10° W 04:18:59 86° N 04:21:32 10° E visible
01 Jul 4.4 00:46:14 10° SW 01:07:10 59° SSE 01:12:20 10° ENE visible
02 Jul 3.6 02:02:52 10° WSW 02:17:21 80° SSE 02:21:16 10° E visible
02 Jul 5.9 22:33:57 10° SSW 23:03:30 38° SSE 23:11:29 10° E visible
03 Jul 2.9 03:18:09 10° W 03:27:11 85° N 03:30:09 10° E visible
03 Jul 4.9 23:49:12 10° SW 00:14:46 54° SSE 00:20:52 10° ENE visible
04 Jul 1.9 04:31:25 10° W 04:36:46 77° SSW 04:39:05 10° ESE visible
05 Jul 4.1 01:06:31 10° WSW 01:25:13 73° SSE 01:29:51 10° ENE visible
05 Jul 6.2 21:37:48 10° SSW 22:10:20 34° SE 22:19:35 10° E visible
06 Jul 3.3 02:23:04 10° W 02:35:11 89° N 02:38:42 10° E visible
06 Jul 5.4 22:51:40 10° SSW 23:22:02 49° SSE 23:29:14 10° E visible
07 Jul 2.4 03:37:33 10° W 03:44:53 90° E 03:47:33 10° E visible
08 Jul 4.5 00:09:09 10° SW 00:32:49 66° SSE 00:38:17 10° ENE visible
